Hourly Data Report for September 10, 2017

All times are specified in Local Standard Time (LST). Add 1 hour to adjust for Daylight Saving Time where and when it is observed.

GRISE FIORD CLIMATE
NUNAVUT

76°25'22.040" N
82°54'08.020" W
44.50 m
2402351
71971
NGC

Download Data

Hourly Data (September 2017)
Hourly Data Report for September 10, 2017
Temp Definition
°C
Dew Point Temp Definition
°C
Rel Hum Definition
%
Wind Dir Definition
10's deg

Wind Spd Definition
km/h
Visibility Definition
km
Stn Press Definition
kPa
Hmdx Definition


Wind Chill Definition


Weather Definition


TIME
00:00 -2.0 -11.5 48 4 31   98.95   -9 LegendNANA
01:00 -2.1 -11.2 50 14 18   98.99   -8 LegendNANA
02:00 -2.9 -10.7 55 3 21   99.04   -9 LegendNANA
03:00 -2.8 -10.6 55 31 15   99.05   -8 LegendNANA
04:00 -2.9 -9.0 63 25 15   99.07   -8 LegendNANA
05:00 -2.5 -10.2 56 26 8   99.11   -6 LegendNANA
06:00 -3.9 -10.4 60 23 6   99.15   -7 LegendNANA
07:00 -3.8 -9.8 63 16 3   99.18   -5 LegendNANA
08:00 -3.5 -9.8 62 26 6   99.20   -6 LegendNANA
09:00 -3.2 -9.8 60 35 11   99.23   -7 LegendNANA
10:00 -2.3 -10.7 52 28 9   99.24   -6 LegendNANA
11:00 -1.7 -10.2 52 29 12   99.25   -6 LegendNANA
12:00 -2.3 -9.8 57 26 14   99.30   -7 LegendNANA
13:00 -1.8 -9.6 55 27 13   99.32   -6 LegendNANA
14:00 -2.3 -9.8 56 31 21   99.36   -8 LegendNANA
15:00 -2.1 -9.9 55 27 17   99.39   -7 LegendNANA
16:00 -2.0 -8.1 63 27 19   99.43   -8 LegendNANA
17:00 -1.9 -7.9 63 30 13   99.44   -6 LegendNANA
18:00 -2.0 -8.5 61 30 14   99.46   -7 LegendNANA
19:00 -2.6 -8.6 63 27 17   99.48   -8 LegendNANA
20:00 -2.7 -8.7 64 26 6   99.50   -5 LegendNANA
21:00 -3.2 -8.4 67 27 10   99.51   -7 LegendNANA
22:00 -3.2 -8.3 67 26 2   99.51   -4 LegendNANA
23:00 -3.1 -7.7 70 16 6   99.52   -6 LegendNANA

Notes on Data Quality.

Legend

  • E = Estimated
  • M = Missing
  • NA = Not Available
  • ‡ = Partner data that is not subject to review by the National Climate Archives
Date modified: